User: anonymous
Location: Kailua
(21.4020°N, 157.7390°W)
Time: 09:20:12
(UTC-10:00)
Language:

Cosmos 2221 Rocket - Orbit

View from above orbital plane
View from above orbital plane
View from above satellite
View from above satellite

Ground track
Ground track

The orbit data is extracted from the following two-line orbital elements,

1 22237U 92080B   14202.65309943  .00000090  00000-0  92995-5 0  3849
2 22237 082.5112 024.9620 0021304 078.1883 327.9928 14.77872200166624
Epoch (UTC): 21 July 2014 15:40:27
Eccentricity: 0.0021304
inclination: 82.5112°
perigee height: 621 km
apogee height: 651 km
right ascension of ascending node: 24.9620°
argument of perigee: 78.1883°
revolutions per day: 14.77872200
mean anomaly at epoch: 327.9928°
orbit number at epoch: 16662

The dashed part of the orbit path shows where the satellite is in the earth's shadow,  

DLR